This demonstration page uses our WeatherBlox Daily Observations layout. Learn more.

41.55636, -103.73856

Hourly Observations for December 11, 2019

Temp ( °F °C ) Dew Point ( °F °C ) Humidity (%) Winds ( mph kmh ) Pressure ( in mb ) Visibility ( mi km ) Precip ( " mm )
12:58 am 00:58 Partly Cloudy 32 -0.2 22 -5.7 67 67 W 10 17 30.27 1025 10 16.0934 0 0
1:58 am 01:58 Mostly Cloudy 31 -0.5 22 -5.4 70 70 WSW 7 11 30.28 1026 10 16.0934 0 0
2:58 am 02:58 Mostly Cloudy 32 0.1 22 -5.4 67 67 W 9 15 30.28 1026 10 16.0934 0 0
3:58 am 03:58 Partly Cloudy 30 -1.2 21 -6 70 70 W 8 13 30.28 1026 10 16.0934 0 0
4:58 am 04:58 Clear 29 -1.9 20 -6.6 71 71 WSW 8 13 30.28 1026 10 16.0934 0 0
5:58 am 05:58 Clear 29 -1.6 20 -6.8 68 68 SW 10 17 30.29 1026 10 16.0934 0 0
6:58 am 06:58 Clear 27 -2.8 19 -7.3 71 71 W 10 17 30.27 1025 10 16.0934 0 0
7:58 am 07:58 Clear 28 -2.5 18 -7.7 68 68 SW 9 15 30.24 1024 10 16.0934 0 0
8:58 am 08:58 Clear 25 -4.1 18 -7.7 76 76 SW 12 19 30.25 1024 10 16.0934 0 0
9:58 am 09:58 Clear 31 -0.8 17 -8.5 56 56 SW 7 11 30.22 1023 10 16.0934 0 0
10:58 am 10:58 Clear 26 -3.6 18 -7.6 74 74 SSW 12 19 30.23 1024 10 16.0934 0 0
11:58 am 11:58 Clear 27 -2.9 18 -7.7 70 70 SSW 13 20 30.23 1024 10 16.0934 0 0
12:58 pm 12:58 Clear 26 -3.1 18 -7.8 70 70 SSW 9 15 30.24 1024 10 16.0934 0 0
1:58 pm 13:58 Mostly Cloudy 28 -2.3 17 -8.1 65 65 SSW 9 15 30.22 1023 10 16.0934 0 0
2:58 pm 14:58 Mostly Sunny 31 -0.7 19 -7.2 62 62 SW 8 13 30.19 1022 10 16.0934 0 0
3:58 pm 15:58 Sunny 36 2.1 21 -6.2 55 55 WSW 12 19 30.17 1022 10 16.0934 0 0
4:58 pm 16:58 Sunny 43 6.2 19 -7.2 38 38 SW 8 13 30.13 1020 10 16.0934 0 0
5:58 pm 17:58 Sunny 44 6.8 20 -6.8 38 38 SSW 23 37 30.08 1019 10 16.0934 0 0
6:58 pm 18:58 Sunny 44 6.4 23 -5.2 44 44 SSW 23 37 30.05 1018 10 16.0934 0 0
7:58 pm 19:58 Sunny 47 8.3 21 -6.3 35 35 SSW 21 33 30.01 1016 10 16.0934 0 0
8:58 pm 20:58 Mostly Sunny 47 8.2 22 -5.4 38 38 SW 6 9 29.99 1016 10 16.0934 0 0
9:58 pm 21:58 Partly Cloudy 44 6.5 22 -5.7 42 42 NNW 5 7 30 1016 10 16.0934 0 0
10:58 pm 22:58 Mostly Cloudy 40 4.6 24 -4.3 53 53 W 7 11 30.03 1017 10 16.0934 0 0
11:58 pm 23:58 Mostly Cloudy 40 4.7 20 -6.6 44 44 W 13 20 30.01 1016 10 16.0934 0 0

Powered by AerisWeather